[[{"header":{"parameterUnit":"m.s-1","parameterCategory":2,"la1":30.2991,"la2":30.254,"lo1":-89.0895,"lo2":-89.0444,"dy":0.0017,"dx":0.0017,"nx":28,"ny":28,"refTime":"2023-08-06T03:00:00:Z","depth":"0","parameterNumber":2,"parameterNumberName":"U-component_of_CURRENTS"},"data":[0,0,0,0,0,0,0,0,0,0,0,0,0,0,0,0,0,0,0,0,0,0,0,0,0,0,0,0,0,0,0,0,0,0,0,0,0,0,0,0,0,0,0,0,0,0,0,0,0,0,0,0,0,0,0,0,0,0,0.3151,0.3151,0,0.3209,0.321,0.3211,0.3229,0.3228,0.3228,0.3227,0.3258,0.3259,0.3261,0,0,0,0,0,0,0,0,0,0,0,0,0,0.3184,0.3183,0.3151,0.3151,0.3151,0.3209,0.321,0.3211,0.3229,0.3228,0.3227,0.3226,0.3257,0.3259,0.3261,0,0,0,0,0,0,0,0,0,0,0,0,0,0.3203,0.3182,0.3151,0.3164,0.3165,0.3209,0.321,0.3212,0.3229,0.3228,0.3227,0.3226,0.3257,0.3259,0.3261,0.3297,0,0,0.3268,0.3269,0,0,0,0,0,0,0,0,0.3202,0.3202,0.3161,0.3163,0.3164,0.3206,0.3233,0.3237,0.323,0.321,0.3227,0.3226,0.3236,0.324,0.326,0.3298,0.33,0.3268,0.3269,0.327,0.3271,0,0,0,0,0,0,0,0.32,0.32,0.3179,0.3162,0.3163,0.321,0.3211,0.3235,0.3231,0.3212,0.3212,0.3211,0.3237,0.3258,0.3261,0.33,0.3268,0.327,0.3271,0.3272,0.3416,0.3418,0,0,0,0,0,0,0.3177,0.3198,0.3177,0.318,0.3175,0.321,0.3211,0.3198,0.3232,0.3235,0.3212,0.3211,0.3255,0.3258,0.3262,0.3345,0.327,0.3273,0.3274,0.3413,0.3416,0.3419,0,0,0,0,0,0,0.3178,0.3174,0.3174,0.3188,0.319,0.3209,0.3195,0.32,0.3221,0.3231,0.3235,0.3228,0.3254,0.3259,0.3302,0.3345,0.3274,0.3276,0.341,0.3414,0.3417,0.3486,0,0,0,0,0,0,0.3178,0.3174,0.3181,0.3185,0.3188,0.3206,0.3196,0.3201,0.322,0.322,0.3246,0.3248,0.3254,0.3299,0.3305,0.3346,0.3277,0.3407,0.3412,0.3416,0.3481,0.3492,0.3501,0,0,0,0,0,0.3179,0.3167,0.3181,0.3179,0.3188,0.3206,0.3214,0.3227,0.3222,0.3242,0.3265,0.3247,0.3332,0.3303,0.3309,0.3352,0.3405,0.3411,0.3416,0.3476,0.349,0.3501,0,0,0,0,0,0,0.32,0.3167,0.3182,0.3168,0.3195,0.3207,0.3216,0.3232,0.3269,0.3265,0.3277,0.3282,0.3342,0.3338,0.3306,0.3409,0.3367,0.3374,0.3411,0.3423,0.3433,0.3425,0.3279,0,0,0,0,0,0.3205,0.3183,0.3187,0.3189,0.3185,0.3209,0.3223,0.3236,0.3257,0.3271,0.3302,0.3332,0.3372,0.3387,0.3423,0.3472,0.3493,0.3506,0.3516,0.3524,0.3524,0.3594,0.361,0.3437,0.3437,0.3437,0,0,0.3219,0.32,0.3193,0.3193,0.3203,0.323,0.3215,0.3229,0.3272,0.3269,0.3341,0.3371,0.3396,0.3462,0.3487,0.346,0.3594,0.3531,0.3538,0.3533,0.3601,0.3618,0.3633,0.3441,0.344,0.3439,0,0,0.3212,0.3209,0.3181,0.3207,0.3217,0.3245,0.3249,0.3278,0.3302,0.3371,0.339,0.3449,0.3502,0.3545,0.3565,0.3652,0.3651,0.3659,0.3697,0.3766,0.378,0.3793,0.3874,0.3894,0.3656,0.3657,0.3657,0,0.3236,0.321,0.319,0.319,0.3225,0.325,0.3276,0.3312,0.3372,0.3406,0.3397,0.3522,0.3547,0.3631,0.3666,0.3676,0.371,0.3645,0.3778,0.3791,0.3803,0.3883,0.3903,0.3661,0.366,0.366,0.3659,0,0.3219,0.3221,0.3209,0.3225,0.3266,0.3292,0.3336,0.3392,0.3431,0.3477,0.3568,0.3615,0.3684,0.3712,0.3713,0.3816,0.3816,0.3788,0.3742,0.3824,0.3904,0.3924,0.3666,0.3665,0.3664,0.3663,0,0,0.3208,0.3196,0.3198,0.3227,0.3292,0.3323,0.3398,0.3475,0.3522,0.3598,0.3673,0.3761,0.3781,0.3806,0.3828,0.3886,0.4019,0.3869,0.3871,0.3942,0.4185,0.4136,0.4153,0.4007,0.401,0.4012,0.4218,0,0.3212,0.3211,0.322,0.3292,0.331,0.3383,0.3453,0.3537,0.36,0.3684,0.3743,0.382,0.3815,0.3851,0.3914,0.399,0.4069,0.3966,0.4101,0.4106,0.4044,0.4173,0.3966,0.4127,0.4238,0.4241,0.4244,0,0.3199,0.3203,0.3239,0.3319,0.3333,0.3398,0.3526,0.3591,0.3701,0.3742,0.3826,0.387,0.3989,0.3955,0.4133,0.4063,0.4135,0.4187,0.4195,0.4132,0.4093,0.4058,0.4159,0.3961,0.4274,0.4272,0.4269,0,0.3199,0.3233,0.3267,0.3302,0.3385,0.3435,0.3504,0.3613,0.366,0.3786,0.3827,0.396,0.4024,0.4135,0.4245,0.42,0.443,0.4381,0.4415,0.4413,0.4254,0.4232,0.4165,0.4518,0.4517,0.4516,0.4516,0,0.3207,0.3242,0.3266,0.3293,0.3362,0.3431,0.3514,0.3591,0.3684,0.3746,0.3846,0.3917,0.4066,0.42,0.4295,0.4429,0.4482,0.4456,0.4471,0.4276,0.4254,0.4084,0.4014,0.4524,0.4523,0.4521,0.452,0,0.3207,0.3217,0.3259,0.3325,0.3353,0.3409,0.3504,0.3547,0.3638,0.3723,0.3765,0.392,0.4095,0.4246,0.4452,0.4483,0.449,0.4658,0.4429,0.4411,0.4211,0.4154,0.4084,0.3989,0.4728,0.4728,0.4728,0,0.321,0.3218,0.3266,0.3275,0.3304,0.3378,0.3415,0.3522,0.3565,0.3719,0.3757,0.3946,0.4067,0.4354,0.4496,0.4687,0.4501,0.4548,0.4416,0.4199,0.4147,0.4019,0.3934,0.4258,0.4255,0.4252,0.4249,0,0.3206,0.321,0.3224,0.3239,0.3272,0.3317,0.3383,0.3413,0.3532,0.3601,0.3725,0.3839,0.4113,0.4208,0.4433,0.4515,0.4278,0.4489,0.4314,0.3826,0.3632,0.3545,0.4141,0.4222,0.4224,0.4226,0.4228,0.4229,0.3186,0.3185,0.3171,0.3193,0.3218,0.3237,0.3237,0.3314,0.3381,0.3437,0.3619,0.3668,0.3825,0.4129,0.4201,0.4089,0.4177,0.3924,0.3901,0.3812,0.3611,0.4162,0.4213,0.4215,0.4217,0.4219,0.4221,0,0.3111,0.3104,0.3122,0.3116,0.3096,0.315,0.3183,0.3145,0.3177,0.3258,0.334,0.3353,0.3432,0.352,0.3582,0.3486,0.3383,0.3357,0.3082,0.3053,0.3575,0.3436,0.3255,0.3255,0.3256,0.3256,0.3256,0.3256,0.3051,0.3012,0.3023,0.2975,0.2975,0.2891,0.288,0.2856,0.2862,0.2807,0.2753,0.2837,0.2963,0.3003,0.29,0.2867,0.2655,0.258,0.2623,0.2902,0.295,0.2995,0.2842,0.2541,0.254,0.1949,0.1944,0.194]},{"header":{"parameterUnit":"m.s-1","parameterCategory":2,"la1":30.2991,"la2":30.254,"lo1":-89.0895,"lo2":-89.0444,"dy":0.0017,"dx":0.0017,"nx":28,"ny":28,"refTime":"2023-08-06T03:00:00:Z","depth":"0","parameterNumber":3,"parameterNumberName":"V-component_of_CURRENTS"},"data":[0,0,0,0,0,0,0,0,0,0,0,0,0,0,0,0,0,0,0,0,0,0,0,0,0,0,0,0,0,0,0,0,0,0,0,0,0,0,0,0,0,0,0,0,0,0,0,0,0,0,0,0,0,0,0,0,0,0,-0.0773,-0.0772,0,-0.0741,-0.0741,-0.0741,-0.0788,-0.0789,-0.079,-0.079,-0.0885,-0.0886,-0.0888,0,0,0,0,0,0,0,0,0,0,0,0,0,-0.0854,-0.0853,-0.0773,-0.0772,-0.0771,-0.0741,-0.0741,-0.0741,-0.0787,-0.0789,-0.079,-0.0791,-0.0884,-0.0886,-0.0888,0,0,0,0,0,0,0,0,0,0,0,0,0,-0.0827,-0.0853,-0.0773,-0.0785,-0.0785,-0.0741,-0.0741,-0.0741,-0.0787,-0.0789,-0.079,-0.0791,-0.0884,-0.0886,-0.0888,-0.0874,0,0,-0.0896,-0.0897,0,0,0,0,0,0,0,0,-0.0828,-0.0825,-0.0784,-0.0784,-0.0784,-0.0763,-0.0803,-0.0789,-0.0787,-0.0794,-0.079,-0.0792,-0.085,-0.0855,-0.0855,-0.0879,-0.0883,-0.0896,-0.0897,-0.0898,-0.0899,0,0,0,0,0,0,0,-0.083,-0.0826,-0.0767,-0.0783,-0.0782,-0.0784,-0.0783,-0.0801,-0.0822,-0.0794,-0.0795,-0.0779,-0.0852,-0.0852,-0.0857,-0.0884,-0.0896,-0.0898,-0.09,-0.09,-0.0933,-0.0933,0,0,0,0,0,0,-0.0819,-0.0828,-0.0768,-0.0766,-0.0802,-0.0781,-0.078,-0.0774,-0.0819,-0.0824,-0.0778,-0.0781,-0.0847,-0.0854,-0.0861,-0.0855,-0.0898,-0.0901,-0.0902,-0.0934,-0.0933,-0.0933,0,0,0,0,0,0,-0.0821,-0.0814,-0.0769,-0.079,-0.0783,-0.0777,-0.0771,-0.0773,-0.0771,-0.0805,-0.0814,-0.0773,-0.0849,-0.0858,-0.0871,-0.086,-0.0902,-0.0904,-0.0935,-0.0934,-0.0933,-0.084,0,0,0,0,0,0,-0.0823,-0.0815,-0.0807,-0.0789,-0.0781,-0.0735,-0.0769,-0.0771,-0.0755,-0.076,-0.0803,-0.0814,-0.085,-0.0867,-0.0873,-0.0864,-0.0906,-0.0935,-0.0934,-0.0933,-0.0843,-0.0836,-0.0829,0,0,0,0,0,-0.0827,-0.0792,-0.0807,-0.08,-0.0771,-0.0733,-0.073,-0.0736,-0.0753,-0.0743,-0.0774,-0.0812,-0.0866,-0.0868,-0.0875,-0.0866,-0.0936,-0.0934,-0.0933,-0.0847,-0.0837,-0.0829,0,0,0,0,0,0,-0.0814,-0.0792,-0.0809,-0.077,-0.0755,-0.0738,-0.0706,-0.0725,-0.0739,-0.0743,-0.0796,-0.0807,-0.0818,-0.0852,-0.0853,-0.0875,-0.091,-0.091,-0.0842,-0.0833,-0.0826,-0.0794,-0.0908,0,0,0,0,0,-0.0808,-0.0785,-0.077,-0.0739,-0.0718,-0.0717,-0.0701,-0.071,-0.0713,-0.072,-0.0755,-0.0791,-0.0816,-0.0832,-0.0859,-0.0862,-0.0879,-0.0865,-0.0858,-0.0851,-0.0831,-0.0844,-0.0835,-0.0928,-0.0928,-0.0928,0,0,-0.079,-0.0776,-0.0762,-0.0735,-0.0714,-0.0684,-0.0712,-0.0673,-0.0667,-0.0728,-0.0728,-0.0763,-0.0811,-0.0818,-0.0827,-0.0846,-0.0834,-0.085,-0.0844,-0.0827,-0.0842,-0.0832,-0.0824,-0.0927,-0.0928,-0.0928,0,0,-0.0728,-0.0727,-0.0684,-0.0671,-0.0638,-0.0642,-0.063,-0.0618,-0.0628,-0.0629,-0.0675,-0.0693,-0.0736,-0.0762,-0.0783,-0.0749,-0.0794,-0.0772,-0.0709,-0.0721,-0.0713,-0.0706,-0.0711,-0.0706,-0.077,-0.077,-0.0769,0,-0.0709,-0.0667,-0.0663,-0.0621,-0.0602,-0.0621,-0.0578,-0.0584,-0.0592,-0.0587,-0.0619,-0.0659,-0.0705,-0.0706,-0.0702,-0.0731,-0.0744,-0.0736,-0.071,-0.0703,-0.0698,-0.0705,-0.07,-0.0765,-0.0765,-0.0766,-0.0766,0,-0.0628,-0.0595,-0.0555,-0.0528,-0.0509,-0.047,-0.0476,-0.0475,-0.0496,-0.0507,-0.0508,-0.056,-0.0586,-0.0608,-0.0647,-0.0633,-0.0657,-0.0696,-0.0725,-0.0682,-0.0693,-0.0689,-0.0758,-0.076,-0.0761,-0.0762,0,0,-0.0585,-0.0515,-0.0507,-0.0479,-0.0462,-0.0434,-0.0416,-0.0399,-0.0373,-0.0407,-0.0375,-0.043,-0.0456,-0.0481,-0.0534,-0.0544,-0.0527,-0.0599,-0.0602,-0.0591,-0.0545,-0.0507,-0.05,-0.0563,-0.0562,-0.0561,-0.0565,0,-0.0526,-0.044,-0.0428,-0.036,-0.0312,-0.0329,-0.0306,-0.0302,-0.0307,-0.0286,-0.0332,-0.0325,-0.0411,-0.0413,-0.0441,-0.0503,-0.0514,-0.0521,-0.0598,-0.06,-0.0562,-0.0493,-0.0404,-0.0395,-0.0562,-0.0562,-0.0561,0,-0.0455,-0.0413,-0.0333,-0.027,-0.0248,-0.0225,-0.0188,-0.0167,-0.0152,-0.0149,-0.0157,-0.0193,-0.0217,-0.0291,-0.037,-0.0373,-0.0447,-0.0496,-0.0499,-0.0489,-0.0554,-0.0468,-0.0382,-0.0506,-0.0556,-0.0556,-0.0557,0,-0.0425,-0.0343,-0.0284,-0.0267,-0.0207,-0.0179,-0.0152,-0.0125,-0.0084,-0.0054,-0.0013,-0.0066,-0.0072,-0.017,-0.0288,-0.0329,-0.0359,-0.0438,-0.0468,-0.0468,-0.0417,-0.0412,-0.0445,-0.0477,-0.0477,-0.0477,-0.0477,0,-0.0367,-0.0313,-0.0266,-0.0231,-0.0167,-0.0132,-0.0056,-0.0035,0.0027,0.0107,0.0062,0.0121,-0.004,-0.0085,-0.0222,-0.0311,-0.0316,-0.0425,-0.0453,-0.0382,-0.0374,-0.0503,-0.0572,-0.0477,-0.0477,-0.0477,-0.0477,0,-0.0321,-0.0291,-0.0221,-0.0162,-0.0144,-0.0097,-0.0003,0.0063,0.0121,0.0226,0.0248,0.026,0.0227,0.0077,-0.0059,-0.02,-0.0335,-0.0341,-0.0237,-0.0251,-0.0409,-0.0474,-0.0509,-0.0522,-0.0376,-0.0375,-0.0374,0,-0.0283,-0.0241,-0.0186,-0.0156,-0.0125,-0.0054,0.0007,0.0086,0.0171,0.0327,0.0391,0.0416,0.046,0.0296,0.0089,-0.0101,-0.0248,-0.0185,-0.0251,-0.0367,-0.0463,-0.0527,-0.0541,-0.0155,-0.0152,-0.015,-0.0148,0,-0.0219,-0.0208,-0.0166,-0.0106,-0.0049,0.0034,0.0135,0.0215,0.0343,0.0463,0.0634,0.0701,0.0608,0.0497,0.0249,0.0102,-0.0211,-0.0147,-0.0292,-0.0289,-0.0334,-0.0376,-0.0214,-0.0129,-0.0131,-0.0132,-0.0133,-0.0134,-0.0183,-0.0156,-0.0106,-0.0038,0.0027,0.0144,0.0247,0.0373,0.0545,0.0779,0.0813,0.0986,0.0803,0.052,0.0317,-0.0016,-0.0066,-0.0161,-0.0231,-0.0287,-0.0287,-0.0068,-0.0005,-0.0006,-0.0007,-0.0008,-0.0009,0,-0.0119,-0.0085,-0.0031,0.0065,0.0176,0.0197,0.0359,0.0495,0.0723,0.0928,0.1102,0.1157,0.0927,0.0632,0.0187,-0.0076,-0.0175,-0.0234,-0.0318,-0.033,-0.015,-0.013,-0.0058,-0.0057,-0.0057,-0.0057,-0.0057,-0.0057,-0.0082,-0.0012,0.0022,0.0204,0.0284,0.0461,0.0572,0.0748,0.0921,0.1214,0.1374,0.1463,0.1272,0.0432,-0.0128,-0.0256,-0.0432,-0.0444,-0.0578,-0.049,-0.049,-0.049,-0.0489,-0.0494,-0.0494,-0.0697,-0.0699,-0.0701]}],[{"header":{"parameterUnit":"m.s-1","parameterCategory":2,"la1":30.2991,"la2":30.254,"lo1":-89.0895,"lo2":-89.0444,"dy":0.0017,"dx":0.0017,"nx":28,"ny":28,"refTime":"2023-08-06T03:00:00:Z","depth":"2","parameterNumber":2,"parameterNumberName":"U-component_of_CURRENTS"},"data":[0,0,0,0,0,0,0,0,0,0,0,0,0,0,0,0,0,0,0,0,0,0,0,0,0,0,0,0,0,0,0,0,0,0,0,0,0,0,0,0,0,0,0,0,0,0,0,0,0,0,0,0,0,0,0,0,0,0,0.1612,0.1614,0,0.1553,0.155,0.1546,0.1349,0.1348,0.1346,0.1345,0.1403,0.1406,0.1409,0,0,0,0,0,0,0,0,0,0,0,0,0,0.1306,0.1312,0.1612,0.1614,0.1616,0.1553,0.1549,0.1546,0.135,0.1348,0.1346,0.1344,0.1402,0.1406,0.1409,0,0,0,0,0,0,0,0,0,0,0,0,0,0.1333,0.1313,0.1611,0.1533,0.1528,0.1554,0.1549,0.1545,0.135,0.1348,0.1345,0.1343,0.1401,0.1405,0.141,0.1485,0,0,0.1424,0.1426,0,0,0,0,0,0,0,0,0.1332,0.1341,0.1543,0.1539,0.1534,0.1483,0.1465,0.1541,0.1351,0.1385,0.1345,0.1342,0.1463,0.1462,0.141,0.1488,0.149,0.1424,0.1427,0.1429,0.143,0,0,0,0,0,0,0,0.1331,0.1341,0.1557,0.1546,0.1541,0.1419,0.1418,0.1474,0.1416,0.1382,0.1375,0.1419,0.1456,0.1406,0.1412,0.1491,0.1424,0.1428,0.1431,0.1433,0.1675,0.1678,0,0,0,0,0,0,0.1418,0.1342,0.1559,0.1558,0.146,0.143,0.1428,0.1476,0.1413,0.1409,0.1421,0.141,0.1399,0.1406,0.1413,0.1538,0.1429,0.1433,0.1436,0.1671,0.1676,0.168,0,0,0,0,0,0,0.1411,0.1438,0.1562,0.1471,0.1483,0.1443,0.1495,0.1477,0.1477,0.1447,0.1438,0.1449,0.1398,0.1407,0.1484,0.1538,0.1435,0.1439,0.1667,0.1672,0.1678,0.1765,0,0,0,0,0,0,0.1403,0.1435,0.1467,0.1479,0.1493,0.1575,0.15,0.1479,0.152,0.1505,0.147,0.1467,0.1397,0.1477,0.1488,0.1542,0.1443,0.1662,0.1669,0.1676,0.1757,0.1772,0.1786,0,0,0,0,0,0.1392,0.1498,0.1468,0.1495,0.1549,0.158,0.157,0.151,0.1526,0.1503,0.1507,0.1471,0.1528,0.1485,0.1496,0.1553,0.1659,0.1667,0.1675,0.1751,0.1769,0.1785,0,0,0,0,0,0,0.1401,0.1491,0.1458,0.1587,0.1573,0.1558,0.161,0.1572,0.1552,0.1562,0.1528,0.1526,0.1602,0.1596,0.1549,0.1646,0.1588,0.1599,0.1641,0.1659,0.1673,0.1693,0.1447,0,0,0,0,0,0.1423,0.1515,0.1537,0.1636,0.1677,0.1652,0.1666,0.1601,0.1617,0.1602,0.1597,0.1613,0.1642,0.1666,0.1668,0.1755,0.1809,0.18,0.1815,0.1827,0.1855,0.1996,0.2026,0.1707,0.1707,0.1707,0,0,0.1444,0.1531,0.1564,0.1641,0.1668,0.1688,0.1649,0.1695,0.1685,0.163,0.1675,0.1673,0.168,0.1721,0.176,0.1728,0.195,0.1837,0.1847,0.1869,0.2008,0.2039,0.2067,0.1713,0.1712,0.1711,0,0,0.1555,0.1643,0.1725,0.1733,0.1785,0.1765,0.1808,0.18,0.1782,0.1822,0.1778,0.1828,0.1881,0.1856,0.1871,0.2002,0.202,0.2008,0.2099,0.2236,0.2263,0.2288,0.2408,0.2443,0.2015,0.2016,0.2016,0,0.1584,0.1675,0.1741,0.1811,0.1845,0.1832,0.1863,0.1857,0.184,0.1873,0.1857,0.1952,0.1947,0.2024,0.2029,0.2034,0.2112,0.2021,0.2254,0.228,0.2304,0.2421,0.2458,0.2021,0.202,0.202,0.2019,0,0.1687,0.1753,0.1853,0.1918,0.194,0.1992,0.1998,0.2013,0.2045,0.2021,0.2121,0.211,0.2167,0.2169,0.2139,0.2289,0.2291,0.2253,0.2205,0.2341,0.2456,0.2493,0.2028,0.2026,0.2025,0.2024,0,0,0.1808,0.1892,0.1925,0.1929,0.1991,0.2021,0.2091,0.2127,0.22,0.2201,0.2313,0.2347,0.2355,0.2375,0.2346,0.2444,0.2663,0.2425,0.243,0.2536,0.2982,0.2794,0.2816,0.2671,0.2678,0.2684,0.2999,0,0.1868,0.1978,0.2001,0.2063,0.2118,0.2126,0.2184,0.2202,0.2268,0.2362,0.2408,0.2502,0.2433,0.248,0.2569,0.2631,0.2765,0.2582,0.2843,0.2852,0.266,0.2854,0.2496,0.273,0.3035,0.3041,0.3045,0,0.1948,0.2014,0.2084,0.2123,0.216,0.2177,0.2296,0.2322,0.2446,0.2512,0.2622,0.2666,0.2801,0.274,0.2971,0.2863,0.2955,0.3005,0.3018,0.2838,0.2732,0.2644,0.2786,0.3107,0.3102,0.3098,0.3093,0,0.2,0.2073,0.2131,0.2145,0.2192,0.2239,0.2274,0.238,0.2441,0.2635,0.2727,0.2883,0.2989,0.3131,0.3217,0.3142,0.3481,0.3388,0.332,0.3307,0.3051,0.3003,0.3622,0.3622,0.3621,0.362,0.3619,0,0.2076,0.2119,0.2152,0.2194,0.2234,0.2272,0.2371,0.2433,0.2571,0.2669,0.2805,0.2919,0.3104,0.3277,0.3342,0.3447,0.3606,0.3394,0.3397,0.3069,0.302,0.3364,0.3329,0.3632,0.3629,0.3627,0.3625,0,0.2122,0.2151,0.2196,0.2254,0.2261,0.2297,0.2378,0.2454,0.2595,0.2746,0.2825,0.3029,0.3255,0.3413,0.3669,0.3595,0.3721,0.3727,0.3314,0.3258,0.3431,0.3398,0.3701,0.3698,0.3695,0.3692,0.369,0,0.2174,0.2202,0.2232,0.2262,0.2291,0.2344,0.2376,0.2459,0.2554,0.2778,0.2853,0.3124,0.3232,0.3508,0.3463,0.3582,0.3765,0.3371,0.313,0.3478,0.3451,0.3423,0.3395,0.2859,0.2851,0.2844,0.2838,0,0.2254,0.2249,0.2272,0.232,0.2345,0.2367,0.2442,0.2486,0.2611,0.2706,0.2859,0.2955,0.3111,0.3026,0.316,0.3172,0.33,0.3221,0.3791,0.2839,0.2694,0.2662,0.2662,0.2774,0.278,0.2785,0.2789,0.2791,0.2302,0.2304,0.2342,0.2351,0.2376,0.2412,0.2393,0.2484,0.2534,0.259,0.2715,0.2703,0.2688,0.2624,0.2622,0.2657,0.2846,0.2793,0.2813,0.2841,0.2632,0.2483,0.2487,0.2492,0.2496,0.2499,0.2502,0,0.2321,0.2327,0.2393,0.2371,0.2351,0.2403,0.2432,0.2356,0.2337,0.2377,0.2383,0.209,0.2023,0.2153,0.1984,0.196,0.1916,0.2027,0.1949,0.2011,0.2067,0.1816,0.1458,0.1456,0.1453,0.1452,0,0,0.233,0.2353,0.2357,0.2329,0.2329,0.2244,0.2223,0.2109,0.2074,0.1923,0.1843,0.1835,0.1945,0.1601,0.1571,0.152,0.1765,0.1475,0.2294,0.2256,0.2309,0.2474,0.2152,0,0,0,0,0]},{"header":{"parameterUnit":"m.s-1","parameterCategory":2,"la1":30.2991,"la2":30.254,"lo1":-89.0895,"lo2":-89.0444,"dy":0.0017,"dx":0.0017,"nx":28,"ny":28,"refTime":"2023-08-06T03:00:00:Z","depth":"2","parameterNumber":3,"parameterNumberName":"V-component_of_CURRENTS"},"data":[0,0,0,0,0,0,0,0,0,0,0,0,0,0,0,0,0,0,0,0,0,0,0,0,0,0,0,0,0,0,0,0,0,0,0,0,0,0,0,0,0,0,0,0,0,0,0,0,0,0,0,0,0,0,0,0,0,0,0.0128,0.0128,0,0.0334,0.0338,0.0342,0.0417,0.0414,0.0412,0.0409,0.0243,0.0241,0.0239,0,0,0,0,0,0,0,0,0,0,0,0,0,0.0152,0.015,0.0128,0.0128,0.0129,0.0334,0.0339,0.0343,0.0417,0.0414,0.0411,0.0408,0.0243,0.0241,0.0239,0,0,0,0,0,0,0,0,0,0,0,0,0,0.0246,0.015,0.0127,0.0176,0.0181,0.0333,0.0339,0.0345,0.0418,0.0414,0.041,0.0407,0.0244,0.0241,0.0238,0.0295,0,0,0.0229,0.0227,0,0,0,0,0,0,0,0,0.024,0.0248,0.0168,0.0173,0.0178,0.0328,0.0285,0.0303,0.0419,0.0349,0.0409,0.0405,0.0226,0.0225,0.0306,0.0288,0.0281,0.0228,0.0227,0.0225,0.0224,0,0,0,0,0,0,0,0.0233,0.0241,0.023,0.0169,0.0175,0.0308,0.0316,0.0294,0.0315,0.0355,0.0356,0.0349,0.0229,0.0309,0.0301,0.0278,0.0229,0.0226,0.0224,0.0223,0.017,0.017,0,0,0,0,0,0,0.0153,0.0233,0.0223,0.0234,0.0178,0.0307,0.0318,0.0301,0.0324,0.0321,0.0351,0.0351,0.0317,0.0305,0.0294,0.0253,0.0225,0.0222,0.0221,0.017,0.017,0.0171,0,0,0,0,0,0,0.0153,0.015,0.0214,0.0224,0.0238,0.0306,0.029,0.0306,0.0335,0.0321,0.0315,0.0352,0.0313,0.0299,0.0288,0.0249,0.0221,0.0218,0.0169,0.017,0.017,0.0236,0,0,0,0,0,0,0.0153,0.0149,0.0141,0.0217,0.0233,0.0297,0.0292,0.0312,0.0329,0.033,0.032,0.0306,0.0309,0.0293,0.0285,0.0244,0.0216,0.0168,0.0169,0.017,0.0233,0.0239,0.0244,0,0,0,0,0,0.0153,0.011,0.014,0.0139,0.0209,0.0297,0.0323,0.0374,0.0331,0.0379,0.0375,0.0304,0.0289,0.0294,0.0283,0.024,0.0168,0.0169,0.017,0.0231,0.0238,0.0243,0,0,0,0,0,0,0.0108,0.0116,0.0148,0.011,0.0203,0.0301,0.0314,0.0348,0.0398,0.0368,0.0342,0.0333,0.0304,0.0271,0.0275,0.0227,0.0202,0.0201,0.0251,0.0257,0.0263,0.0262,0.0213,0,0,0,0,0,0.0096,0.0069,0.014,0.0121,0.014,0.0229,0.0267,0.0319,0.0353,0.0373,0.036,0.033,0.0317,0.0284,0.0285,0.0265,0.023,0.0219,0.0224,0.0229,0.0222,0.018,0.0181,0.0174,0.0174,0.0174,0,0,0.0092,0.007,0.0074,0.0113,0.0167,0.0256,0.0245,0.0292,0.0378,0.0335,0.0391,0.0353,0.0322,0.0329,0.0303,0.0279,0.0216,0.023,0.0234,0.0224,0.0181,0.0182,0.0182,0.0175,0.0175,0.0174,0,0,0.0074,0.0028,0.004,0.0102,0.0164,0.0236,0.0229,0.0324,0.0366,0.0439,0.041,0.0364,0.0355,0.0343,0.0325,0.0347,0.0259,0.0302,0.0309,0.027,0.027,0.0269,0.0242,0.0239,0.0288,0.0288,0.0288,0,0.0074,0.0086,0.0072,0.0113,0.0166,0.0209,0.0302,0.0373,0.0466,0.0475,0.0448,0.0411,0.0374,0.0352,0.0365,0.0354,0.0318,0.0291,0.0276,0.0275,0.0273,0.0245,0.0241,0.0292,0.0291,0.0291,0.0291,0,0.012,0.0137,0.0124,0.0201,0.0275,0.0331,0.0428,0.0488,0.0497,0.0541,0.0515,0.0491,0.0439,0.0414,0.0399,0.0346,0.0322,0.0303,0.0262,0.0278,0.0248,0.0242,0.0296,0.0295,0.0294,0.0293,0,0,0.0085,0.0157,0.0147,0.0228,0.0321,0.0393,0.0494,0.0602,0.0606,0.0644,0.0639,0.0603,0.0502,0.0475,0.0409,0.0369,0.0333,0.0319,0.0315,0.0294,0.0242,0.029,0.0287,0.03,0.0299,0.0298,0.0232,0,0.0143,0.0215,0.0258,0.0401,0.0472,0.0548,0.0648,0.0734,0.0725,0.0723,0.0656,0.0607,0.0548,0.0475,0.0429,0.0366,0.0316,0.0353,0.0226,0.0223,0.0265,0.0281,0.0238,0.018,0.0225,0.0224,0.0224,0,0.0195,0.0231,0.0346,0.0505,0.0541,0.0636,0.0731,0.0828,0.0819,0.0794,0.0694,0.0616,0.0546,0.0486,0.0374,0.0393,0.0309,0.0263,0.0259,0.0272,0.0259,0.0167,0.0166,0.0213,0.0214,0.0214,0.0215,0,0.0168,0.0306,0.0386,0.0437,0.061,0.0678,0.0772,0.0807,0.0858,0.0775,0.0757,0.0632,0.059,0.0469,0.0372,0.0349,0.0269,0.0229,0.0195,0.0197,0.0121,0.0119,0.0133,0.0133,0.0133,0.0134,0.0134,0,0.0191,0.0274,0.0368,0.0406,0.0539,0.0659,0.0727,0.0788,0.0811,0.0843,0.0743,0.0752,0.0582,0.0521,0.039,0.03,0.0276,0.02,0.0183,0.0147,0.0148,0.014,0.0141,0.0131,0.0132,0.0132,0.0133,0,0.018,0.0223,0.0338,0.0471,0.052,0.0601,0.0751,0.0788,0.0814,0.0848,0.0836,0.0843,0.0779,0.0624,0.0463,0.0363,0.0242,0.0204,0.0188,0.0172,0.0181,0.0186,0.014,0.0141,0.0142,0.0143,0.0143,0,0.0183,0.0221,0.0334,0.0365,0.0422,0.0535,0.0623,0.0749,0.0791,0.0932,0.0977,0.0957,0.0975,0.0799,0.0546,0.0318,0.03,0.0172,0.0125,0.0193,0.0181,0.0185,0.019,0.0041,0.0041,0.0041,0.0041,0,0.0196,0.0205,0.0267,0.0329,0.0409,0.0539,0.0667,0.0738,0.0899,0.0999,0.1166,0.1216,0.105,0.0843,0.0554,0.0403,0.0201,0.0166,0.0218,0.0075,0.0102,0.009,0.0097,0.0039,0.0039,0.0039,0.0039,0.0039,0.0178,0.021,0.0241,0.0349,0.0435,0.0577,0.0689,0.0836,0.103,0.1216,0.1265,0.1333,0.1086,0.0708,0.0473,0.0203,0.0218,0.0104,0.0103,0.0102,0.0131,0.0162,0.0114,0.0115,0.0115,0.0116,0.0116,0,0.0206,0.0241,0.0275,0.0419,0.0554,0.0584,0.077,0.0904,0.1162,0.1254,0.1378,0.1159,0.0958,0.0698,0.0275,0.0074,0.0018,0.003,-0.0027,-0.0024,-0.0021,-0.0,-0.0051,-0.0052,-0.0053,-0.0053,0,0,0.0214,0.0275,0.0324,0.0542,0.0627,0.0807,0.0918,0.1102,0.1198,0.1345,0.1343,0.1271,0.0989,0.0643,0.0351,0.0148,0.0115,0.0113,0.0262,0.023,0.0235,0.0031,0.007,0,0,0,0,0]}],[{"header":{"parameterUnit":"m.s-1","parameterCategory":2,"la1":30.2991,"la2":30.254,"lo1":-89.0895,"lo2":-89.0444,"dy":0.0017,"dx":0.0017,"nx":28,"ny":28,"refTime":"2023-08-06T03:00:00:Z","depth":"4","parameterNumber":2,"parameterNumberName":"U-component_of_CURRENTS"},"data":[0,0,0,0,0,0,0,0,0,0,0,0,0,0,0,0,0,0,0,0,0,0,0,0,0,0,0,0,0,0,0,0,0,0,0,0,0,0,0,0,0,0,0,0,0,0,0,0,0,0,0,0,0,0,0,0,0,0,-0.0418,-0.0419,0,-0.0441,-0.0441,-0.0441,-0.0412,-0.0411,-0.0411,-0.041,-0.0422,-0.0423,-0.0424,0,0,0,0,0,0,0,0,0,0,0,0,0,-0.0349,-0.035,-0.0418,-0.0419,-0.042,-0.0441,-0.0441,-0.0441,-0.0412,-0.0411,-0.0411,-0.041,-0.0422,-0.0423,-0.0424,0,0,0,0,0,0,0,0,0,0,0,0,0,-0.0373,-0.0351,-0.0418,-0.0411,-0.041,-0.0441,-0.0441,-0.0441,-0.0412,-0.0411,-0.041,-0.0409,-0.0422,-0.0423,-0.0425,-0.0455,0,0,-0.0429,-0.043,0,0,0,0,0,0,0,0,-0.0371,-0.0375,-0.0411,-0.0411,-0.0411,-0.0426,-0.0421,-0.0446,-0.0413,-0.0408,-0.041,-0.0409,-0.0426,-0.0427,-0.0428,-0.0456,-0.0456,-0.0429,-0.043,-0.0431,-0.0431,0,0,0,0,0,0,0,-0.037,-0.0374,-0.0424,-0.0412,-0.0412,-0.0405,-0.0407,-0.0425,-0.042,-0.0408,-0.0407,-0.0416,-0.0425,-0.0427,-0.0429,-0.0457,-0.0429,-0.0431,-0.0431,-0.0432,-0.0538,-0.054,0,0,0,0,0,0,-0.0376,-0.0373,-0.0423,-0.0425,-0.0392,-0.0408,-0.041,-0.0419,-0.042,-0.042,-0.0416,-0.0414,-0.0425,-0.0427,-0.0429,-0.0443,-0.0431,-0.0432,-0.0433,-0.0536,-0.0538,-0.054,0,0,0,0,0,0,-0.0374,-0.038,-0.0422,-0.0401,-0.0407,-0.041,-0.0421,-0.042,-0.0403,-0.0427,-0.0425,-0.0398,-0.0424,-0.0427,-0.0449,-0.0444,-0.0433,-0.0434,-0.0534,-0.0537,-0.0539,-0.0487,0,0,0,0,0,0,-0.0372,-0.0379,-0.0386,-0.0402,-0.0408,-0.0432,-0.0423,-0.0422,-0.0413,-0.0409,-0.0411,-0.0412,-0.0424,-0.0447,-0.0451,-0.0446,-0.0435,-0.0531,-0.0535,-0.0538,-0.0486,-0.0487,-0.0489,0,0,0,0,0,-0.0369,-0.0387,-0.0386,-0.0392,-0.0418,-0.0432,-0.0434,-0.0431,-0.0413,-0.0409,-0.0421,-0.0411,-0.0473,-0.045,-0.0454,-0.0449,-0.053,-0.0534,-0.0538,-0.0485,-0.0487,-0.0489,0,0,0,0,0,0,-0.0364,-0.0387,-0.0386,-0.041,-0.0416,-0.0429,-0.0428,-0.0421,-0.0426,-0.0411,-0.0429,-0.0432,-0.0453,-0.0473,-0.0446,-0.0499,-0.0503,-0.0508,-0.0462,-0.0463,-0.0465,-0.0429,-0.0437,0,0,0,0,0,-0.0367,-0.0379,-0.0398,-0.0413,-0.0413,-0.0414,-0.0417,-0.0407,-0.0417,-0.0415,-0.0418,-0.044,-0.0479,-0.0485,-0.0515,-0.0535,-0.0551,-0.0543,-0.0545,-0.0545,-0.0525,-0.0584,-0.0587,-0.0555,-0.0555,-0.0554,0,0,-0.0372,-0.0383,-0.0392,-0.0411,-0.041,-0.0413,-0.0411,-0.0402,-0.0405,-0.0418,-0.0415,-0.0438,-0.049,-0.0516,-0.0527,-0.0524,-0.0561,-0.0551,-0.055,-0.0529,-0.0589,-0.0591,-0.0594,-0.0557,-0.0557,-0.0556,0,0,-0.0364,-0.0389,-0.0382,-0.0389,-0.0386,-0.0398,-0.0391,-0.0387,-0.0385,-0.0388,-0.0416,-0.0444,-0.0467,-0.0518,-0.0547,-0.0581,-0.057,-0.0583,-0.0547,-0.0605,-0.0607,-0.0609,-0.061,-0.0613,-0.0578,-0.0578,-0.0578,0,-0.0361,-0.0359,-0.0382,-0.0373,-0.0378,-0.0389,-0.0376,-0.0393,-0.0394,-0.04,-0.0377,-0.0449,-0.0476,-0.0553,-0.0547,-0.0579,-0.0581,-0.0527,-0.0602,-0.0604,-0.0607,-0.0608,-0.0612,-0.0576,-0.0577,-0.0577,-0.0577,0,-0.0339,-0.0339,-0.0335,-0.0334,-0.0349,-0.0339,-0.0368,-0.0368,-0.0356,-0.037,-0.0406,-0.0451,-0.048,-0.0513,-0.052,-0.0569,-0.0552,-0.0595,-0.0582,-0.0606,-0.0607,-0.0611,-0.0573,-0.0574,-0.0575,-0.0575,0,0,-0.0312,-0.0316,-0.0305,-0.0302,-0.032,-0.0329,-0.0349,-0.0373,-0.038,-0.0387,-0.0403,-0.0462,-0.045,-0.0484,-0.0523,-0.0568,-0.0572,-0.0555,-0.0559,-0.0526,-0.0639,-0.0434,-0.0419,-0.0611,-0.0613,-0.0614,-0.0621,0,-0.0271,-0.0245,-0.0261,-0.0253,-0.0253,-0.0284,-0.0307,-0.0336,-0.0354,-0.0378,-0.044,-0.0457,-0.0458,-0.0443,-0.0492,-0.0567,-0.0583,-0.0562,-0.0646,-0.0648,-0.044,-0.0418,-0.0617,-0.0625,-0.0626,-0.0626,-0.0627,0,-0.0224,-0.0222,-0.0193,-0.0217,-0.0215,-0.0207,-0.0243,-0.026,-0.0324,-0.033,-0.0361,-0.0393,-0.0449,-0.0444,-0.0549,-0.0521,-0.054,-0.0602,-0.0605,-0.0429,-0.045,-0.0608,-0.0635,-0.0634,-0.0634,-0.0633,-0.0633,0,-0.0189,-0.0174,-0.0149,-0.0155,-0.0186,-0.0165,-0.0165,-0.0218,-0.0246,-0.0272,-0.0278,-0.0361,-0.037,-0.0449,-0.0502,-0.0513,-0.0618,-0.0672,-0.0517,-0.0503,-0.071,-0.0708,-0.0724,-0.0724,-0.0724,-0.0724,-0.0724,0,-0.0149,-0.0133,-0.0113,-0.0109,-0.0093,-0.0103,-0.0098,-0.0114,-0.015,-0.0167,-0.0213,-0.0235,-0.0361,-0.0428,-0.0495,-0.0479,-0.0602,-0.0474,-0.0484,-0.0687,-0.0683,-0.0711,-0.0709,-0.0724,-0.0724,-0.0724,-0.0724,0,-0.0121,-0.0105,-0.0103,-0.0092,-0.0078,-0.0057,-0.0052,-0.007,-0.0062,-0.0082,-0.0069,-0.0145,-0.0158,-0.0283,-0.041,-0.042,-0.048,-0.0445,-0.0599,-0.0625,-0.0328,-0.0324,-0.0266,-0.0259,-0.0253,-0.0248,-0.0243,0,-0.0101,-0.0088,-0.0087,-0.0086,-0.0064,-0.0033,-0.0033,-0.0027,-0.0029,-0.0018,-0.0023,-0.0017,-0.0049,-0.0086,-0.0208,-0.0282,-0.0288,-0.0309,-0.0341,-0.026,-0.0279,-0.0285,-0.029,-0.0233,-0.0232,-0.023,-0.0229,0,-0.0094,-0.0087,-0.0097,-0.0092,-0.0073,-0.0074,-0.0024,-0.0021,0.001,0.0005,0.0088,0.0106,0.0107,0.0034,0.0015,-0.0072,-0.0304,-0.0245,-0.026,-0.029,-0.0221,-0.0246,-0.0258,-0.0207,-0.021,-0.0212,-0.0213,0,-0.0089,-0.0106,-0.0115,-0.0101,-0.0095,-0.0072,-0.0069,0.0001,0.002,0.0098,0.0129,0.0139,0.0137,0.0148,0.0087,0.0086,0.0079,0.0041,0.0011,-0.0014,0.0075,0.02,0.0367,0,0,0,0,0,-0.0059,-0.0082,-0.0118,-0.0121,-0.0116,-0.0078,-0.0056,-0.005,0.0012,0.0109,0.0148,0.0188,0.0239,0.0204,0.025,0.0151,0.0018,0.0203,-0.0057,-0.0088,-0.0113,-0.0031,0,0,0,0,0,0,-0.0068,-0.0084,-0.0128,-0.0117,-0.0089,-0.0081,-0.0043,-0.0019,0.0055,0.0132,0.0142,0.0241,0.0238,0.024,0.0271,0.0267,0.0118,0.0229,0.0231,-0.0074,-0.0096,-0.0116,-0.0041,0,0,0,0,0]},{"header":{"parameterUnit":"m.s-1","parameterCategory":2,"la1":30.2991,"la2":30.254,"lo1":-89.0895,"lo2":-89.0444,"dy":0.0017,"dx":0.0017,"nx":28,"ny":28,"refTime":"2023-08-06T03:00:00:Z","depth":"4","parameterNumber":3,"parameterNumberName":"V-component_of_CURRENTS"},"data":[0,0,0,0,0,0,0,0,0,0,0,0,0,0,0,0,0,0,0,0,0,0,0,0,0,0,0,0,0,0,0,0,0,0,0,0,0,0,0,0,0,0,0,0,0,0,0,0,0,0,0,0,0,0,0,0,0,0,0.024,0.0241,0,0.0234,0.0234,0.0233,0.0287,0.029,0.0292,0.0294,0.0374,0.0374,0.0374,0,0,0,0,0,0,0,0,0,0,0,0,0,0.0246,0.0245,0.024,0.0241,0.0241,0.0235,0.0234,0.0233,0.0287,0.029,0.0293,0.0295,0.0374,0.0374,0.0374,0,0,0,0,0,0,0,0,0,0,0,0,0,0.0234,0.0245,0.024,0.0274,0.0278,0.0235,0.0234,0.0233,0.0286,0.029,0.0293,0.0296,0.0374,0.0374,0.0374,0.0306,0,0,0.0374,0.0374,0,0,0,0,0,0,0,0,0.0234,0.0232,0.0268,0.0272,0.0276,0.0273,0.0266,0.0264,0.0286,0.0274,0.0294,0.0298,0.0351,0.0353,0.0331,0.0309,0.0313,0.0374,0.0374,0.0374,0.0374,0,0,0,0,0,0,0,0.0235,0.0233,0.0229,0.0269,0.0273,0.0273,0.0274,0.0264,0.0288,0.0275,0.0281,0.0293,0.0353,0.0331,0.0334,0.0314,0.0374,0.0374,0.0374,0.0374,0.0311,0.031,0,0,0,0,0,0,0.0252,0.0233,0.0229,0.023,0.0273,0.027,0.0272,0.0263,0.0287,0.0295,0.029,0.0296,0.0329,0.0334,0.0337,0.0325,0.0374,0.0374,0.0374,0.0313,0.0311,0.0309,0,0,0,0,0,0,0.0251,0.025,0.023,0.024,0.0239,0.0268,0.0257,0.0261,0.0281,0.0299,0.0308,0.0313,0.0332,0.0337,0.0338,0.0327,0.0374,0.0374,0.0315,0.0312,0.031,0.0258,0,0,0,0,0,0,0.0251,0.0249,0.0265,0.024,0.0239,0.0215,0.0255,0.0259,0.0285,0.0293,0.032,0.0328,0.0335,0.0338,0.0338,0.0328,0.0374,0.0317,0.0314,0.0311,0.0262,0.0254,0.0248,0,0,0,0,0,0.0251,0.0252,0.0264,0.0266,0.0253,0.0215,0.0212,0.024,0.0284,0.0274,0.0292,0.033,0.0319,0.0336,0.0337,0.0326,0.0319,0.0315,0.0311,0.0265,0.0256,0.0248,0,0,0,0,0,0,0.0264,0.0257,0.0271,0.0272,0.0254,0.0228,0.0244,0.0252,0.0254,0.0284,0.0302,0.0308,0.0302,0.0315,0.0333,0.0296,0.0327,0.0323,0.0292,0.0283,0.0276,0.0269,0.0374,0,0,0,0,0,0.0272,0.0277,0.0255,0.0261,0.0259,0.0254,0.0256,0.0261,0.0257,0.0265,0.0281,0.0293,0.0274,0.0285,0.0272,0.0253,0.0265,0.0247,0.024,0.0234,0.0227,0.0218,0.021,0.0297,0.0297,0.0297,0,0,0.0287,0.0283,0.0291,0.0267,0.0266,0.023,0.0262,0.0263,0.0232,0.0272,0.0262,0.0269,0.026,0.0232,0.0232,0.0253,0.0215,0.0229,0.0224,0.022,0.0213,0.0205,0.0198,0.0294,0.0295,0.0295,0,0,0.0293,0.0307,0.0305,0.0278,0.0274,0.0249,0.0254,0.0236,0.0237,0.021,0.0226,0.0224,0.0215,0.0191,0.0179,0.0123,0.0172,0.0136,0.0103,0.0095,0.0088,0.0082,0.0093,0.0089,0.014,0.014,0.014,0,0.0326,0.0301,0.0298,0.0269,0.0255,0.0256,0.0225,0.0195,0.0179,0.0166,0.0212,0.0173,0.0183,0.0119,0.0105,0.0107,0.0125,0.014,0.0087,0.0081,0.0076,0.0089,0.0085,0.0137,0.0137,0.0138,0.0138,0,0.0295,0.029,0.0286,0.0246,0.0211,0.0195,0.0145,0.0122,0.0139,0.0115,0.0087,0.0087,0.0075,0.0068,0.0074,0.003,0.0062,0.0075,0.0113,0.0064,0.0081,0.0077,0.0133,0.0134,0.0135,0.0136,0,0,0.0377,0.0287,0.0306,0.0269,0.0205,0.0172,0.0103,0.0039,0.0013,0.0006,-0.0025,-0.0059,-0.0021,-0.0033,-0.0022,-0.0031,-0.0045,0.0016,0.0017,0.0035,-0.0041,-0.0071,-0.0076,-0.0029,-0.003,-0.0031,-0.0012,0,0.0383,0.0338,0.0273,0.0216,0.0182,0.0116,0.0043,-0.002,-0.0043,-0.0078,-0.0088,-0.0094,-0.0073,-0.0045,-0.0066,-0.0051,-0.0057,-0.005,-0.0004,-0.0003,-0.0017,-0.0084,-0.0034,-0.0015,-0.0016,-0.0016,-0.0016,0,0.0401,0.0361,0.0343,0.0195,0.0176,0.0167,0.0074,-0.001,-0.0091,-0.0114,-0.0135,-0.0136,-0.0159,-0.0111,-0.0125,-0.0112,-0.0079,-0.0068,-0.0066,-0.008,-0.004,0.0041,-0.0022,-0.0022,-0.0021,-0.0021,-0.002,0,0.0503,0.0399,0.0405,0.0371,0.0226,0.0238,0.0168,0.0064,-0.0016,-0.0074,-0.0096,-0.0155,-0.0134,-0.0135,-0.0119,-0.0103,-0.0128,-0.01,-0.0107,-0.0106,-0.0056,-0.005,-0.011,-0.011,-0.011,-0.011,-0.011,0,0.0525,0.053,0.0504,0.0512,0.0507,0.0363,0.0344,0.0247,0.012,0.0021,-0.0037,-0.0107,-0.0132,-0.0163,-0.014,-0.0146,-0.0139,-0.0132,-0.0119,-0.0078,-0.0074,-0.0057,-0.0051,-0.0109,-0.0109,-0.011,-0.011,0,0.0642,0.0624,0.0634,0.0579,0.0589,0.0616,0.0488,0.0403,0.0299,0.0181,0.0169,-0.0033,-0.0101,-0.0136,-0.016,-0.0161,-0.0165,-0.016,-0.0118,-0.0098,-0.0125,-0.0123,-0.0169,-0.017,-0.0171,-0.0172,-0.0173,0,0.0687,0.0726,0.0778,0.0829,0.0863,0.086,0.0805,0.0592,0.0481,0.0204,0.0147,0.0015,-0.0097,-0.0126,-0.021,-0.0203,-0.0193,-0.0179,-0.0166,-0.0157,-0.0139,-0.0134,-0.013,-0.0174,-0.0175,-0.0175,-0.0175,0,0.0756,0.0856,0.0854,0.0983,0.1031,0.0979,0.0915,0.0801,0.0485,0.0406,0.0183,0.0062,-0.0054,-0.0146,-0.0148,-0.0153,-0.019,-0.0189,-0.0186,-0.0174,-0.0164,-0.0144,-0.0138,-0.0179,-0.0178,-0.0178,-0.0178,0,0.0848,0.0871,0.0932,0.1034,0.1103,0.1066,0.0994,0.082,0.0655,0.0336,0.0258,0.0079,-0.004,-0.0126,-0.0152,-0.0154,-0.0148,-0.0105,-0.0106,-0.0103,-0.0111,-0.0091,-0.0089,0,0,0,0,0,0.0862,0.0843,0.0933,0.0978,0.1075,0.1121,0.0999,0.0867,0.058,0.0473,0.0361,0.0248,0.0081,-0.0039,-0.003,-0.0191,-0.0168,-0.0189,-0.0119,-0.0199,-0.0195,-0.0222,0,0,0,0,0,0,0.0835,0.0884,0.0885,0.0963,0.1014,0.1025,0.096,0.0779,0.0707,0.0482,0.0427,0.0315,0.0193,0.0154,0.0011,-0.0024,0.0027,-0.0276,-0.0276,-0.0201,-0.0198,-0.0194,-0.022,0,0,0,0,0]}]]